| time (UTC) | temp F | wind direction | speed MPH | gust MPH | rain 1hr in | rain 24hr in | rain mn in | humidity % | barometer mb |
| 20260504220010 | 80 | 204 | 10.0 | 20.0 | 0.00 | 0.00 | 0.00 | 37 | 1009.4 |
| 20260504214558 | 81 | 265 | 7.0 | 15.0 | 0.00 | 0.00 | 0.00 | 37 | 1009.2 |
| 20260504213106 | 81 | 212 | 10.0 | 16.0 | 0.00 | 0.00 | 0.00 | 38 | 1009.3 |
| 20260504211651 | 81 | 235 | 6.0 | 15.0 | 0.00 | 0.00 | 0.00 | 38 | 1008.9 |
| 20260504210056 | 81 | 211 | 9.0 | 21.0 | 0.00 | 0.00 | 0.00 | 38 | 1009.5 |
| 20260504204556 | 81 | 174 | 8.0 | 21.0 | 0.00 | 0.00 | 0.00 | 39 | 1009.6 |
| 20260504203053 | 81 | 234 | 10.0 | 20.0 | 0.00 | 0.00 | 0.00 | 37 | 1009.7 |
| 20260504201555 | 81 | 114 | 8.0 | 22.0 | 0.00 | 0.00 | 0.00 | 38 | 1009.9 |
| 20260504200053 | 81 | 248 | 10.0 | 22.0 | 0.00 | 0.00 | 0.00 | 37 | 1010.1 |
| 20260504194544 | 81 | 156 | 8.0 | 19.0 | 0.00 | 0.00 | 0.00 | 36 | 1010.2 |
| 20260504193036 | 81 | 158 | 8.0 | 20.0 | 0.00 | 0.00 | 0.00 | 37 | 1010.4 |
| 20260504191535 | 81 | 193 | 7.0 | 16.0 | 0.00 | 0.00 | 0.00 | 38 | 1010.5 |
| 20260504190030 | 80 | 214 | 13.0 | 25.0 | 0.00 | 0.00 | 0.00 | 36 | 1010.8 |
| 20260504184542 | 80 | 168 | 8.0 | 20.0 | 0.00 | 0.00 | 0.00 | 36 | 1010.9 |
| 20260504183027 | 80 | 233 | 13.0 | 21.0 | 0.00 | 0.00 | 0.00 | 38 | 1011.1 |
| 20260504181523 | 79 | 229 | 10.0 | 20.0 | 0.00 | 0.00 | 0.00 | 38 | 1011.4 |
| 20260504180024 | 79 | 206 | 9.0 | 22.0 | 0.00 | 0.00 | 0.00 | 39 | 1011.6 |
| 20260504174509 | 79 | 204 | 10.0 | 21.0 | 0.00 | 0.00 | 0.00 | 39 | 1011.7 |
| 20260504173006 | 79 | 200 | 7.0 | 20.0 | 0.00 | 0.00 | 0.00 | 40 | 1011.8 |
| 20260504171504 | 78 | 250 | 8.0 | 24.0 | 0.00 | 0.00 | 0.00 | 40 | 1012.0 |
| 20260504081507 | 64 | 184 | 5.0 | 11.0 | 0.00 | 0.00 | 0.00 | 62 | 1013.1 |
| 20260504050001 | 65 | 194 | 2.0 | 8.0 | 0.00 | 0.00 | 0.00 | 57 | 1014.8 |
| 20260504044501 | 65 | 174 | 2.0 | 7.0 | 0.00 | 0.00 | 0.00 | 57 | 1014.8 |
| 20260504043048 | 65 | 201 | 1.0 | 6.0 | 0.00 | 0.00 | 0.00 | 57 | 1014.9 |
| 20260504041548 | 66 | 191 | 3.0 | 7.0 | 0.00 | 0.00 | 0.00 | 56 | 1014.9 |
| 20260504040100 | 65 | 134 | 1.0 | 8.0 | 0.00 | 0.00 | 0.00 | 56 | 1015.1 |
| 20260504034547 | 64 | 138 | 0.0 | 6.0 | 0.00 | 0.00 | 0.00 | 57 | 1015.0 |
| 20260504033049 | 63 | 175 | 0.0 | 5.0 | 0.00 | 0.00 | 0.00 | 59 | 1015.3 |
| 20260504031555 | 63 | 127 | 0.0 | 2.0 | 0.00 | 0.00 | 0.00 | 59 | 1015.4 |
| 20260504030045 | 63 | 128 | 0.0 | 1.0 | 0.00 | 0.00 | 0.00 | 59 | 1015.4 |
| 20260504024545 | 63 | 128 | 0.0 | 1.0 | 0.00 | 0.00 | 0.00 | 58 | 1015.4 |
| 20260504023030 | 64 | 128 | 0.0 | 0.0 | 0.00 | 0.00 | 0.00 | 57 | 1015.4 |
| 20260504021526 | 65 | 128 | 0.0 | 0.0 | 0.00 | 0.00 | 0.00 | 56 | 1015.3 |
| 20260504020016 | 65 | 128 | 0.0 | 2.0 | 0.00 | 0.00 | 0.00 | 54 | 1015.2 |
| 20260504014523 | 66 | 126 | 0.0 | 2.0 | 0.00 | 0.00 | 0.00 | 52 | 1015.0 |
| 20260504013013 | 67 | 166 | 0.0 | 5.0 | 0.00 | 0.00 | 0.00 | 50 | 1015.0 |
| 20260504011512 | 68 | 155 | 0.0 | 4.0 | 0.00 | 0.00 | 0.00 | 46 | 1015.0 |
| 20260504010011 | 69 | 183 | 0.0 | 5.0 | 0.00 | 0.00 | 0.00 | 43 | 1014.9 |
| 20260504004518 | 70 | 180 | 2.0 | 7.0 | 0.00 | 0.00 | 0.00 | 40 | 1014.9 |
| 20260504003009 | 71 | 178 | 1.0 | 9.0 | 0.00 | 0.00 | 0.00 | 38 | 1015.1 |
| 20260504001509 | 72 | 163 | 2.0 | 8.0 | 0.00 | 0.00 | 0.00 | 36 | 1015.1 |
| 20260504000056 | 72 | 235 | 4.0 | 10.0 | 0.00 | 0.00 | 0.00 | 34 | 1015.2 |
| 20260503234623 | 72 | 193 | 5.0 | 12.0 | 0.00 | 0.00 | 0.00 | 33 | 1015.2 |
| 20260503233053 | 73 | 185 | 4.0 | 9.0 | 0.00 | 0.00 | 0.00 | 33 | 1015.5 |
| 20260503231552 | 73 | 201 | 5.0 | 10.0 | 0.00 | 0.00 | 0.00 | 31 | 1015.7 |
| 20260503230049 | 74 | 223 | 6.0 | 13.0 | 0.00 | 0.00 | 0.00 | 30 | 1015.9 |
| 20260503224548 | 74 | 175 | 4.0 | 10.0 | 0.00 | 0.00 | 0.00 | 32 | 1016.0 |
| 20260503223047 | 74 | 182 | 6.0 | 12.0 | 0.00 | 0.00 | 0.00 | 31 | 1016.1 |
| 20260503221556 | 74 | 186 | 6.0 | 13.0 | 0.00 | 0.00 | 0.00 | 33 | 1016.2 |